DW6399 Weather Reports


time (UTC)temp
C
wind
direction
speed
KPH
gust
KPH
rain 1hr
cm
rain 24hr
cm
rain mn
cm
humidity
%
barometer
mb
20260506012725 -1 177 1.6 3.2 0.00 0.00 0.00 82 999.8
20260506010904 -1 224 1.6 4.8 0.00 0.00 0.00 81 999.7
20260506003604 -1 260 1.6 6.4 0.00 0.00 0.00 80 999.5
20260506002704 -1 269 1.6 8.0 0.00 0.00 0.00 79 999.5
20260506001804 -1 266 1.6 6.4 0.00 0.00 0.00 78 999.4
20260506000904 0 259 1.6 8.0 0.00 0.00 0.00 78 999.4
20260506000032 0 261 1.6 8.0 0.00 0.03 0.00 78 999.4
20260505235404 0 288 3.2 8.0 0.00 0.03 0.00 78 999.4
20260505234504 0 277 1.6 6.4 0.00 0.03 0.00 78 999.3
20260505233604 0 271 3.2 12.9 0.00 0.03 0.00 78 999.3
20260505232704 0 260 1.6 9.7 0.00 0.03 0.00 79 999.3
20260505231804 0 200 1.6 4.8 0.00 0.03 0.00 78 999.3
20260505230904 0 212 1.6 4.8 0.00 0.03 0.00 77 999.3
20260505230025 0 247 1.6 6.4 0.00 0.03 0.00 77 999.2
20260505225404 0 278 1.6 6.4 0.00 0.05 0.00 77 999.2
20260505224504 0 248 1.6 6.4 0.00 0.05 0.00 77 999.2
20260505223604 0 263 3.2 11.3 0.00 0.05 0.00 76 999.3
20260505222704 0 237 1.6 8.0 0.00 0.05 0.00 75 999.3
20260505221804 0 261 1.6 9.7 0.00 0.05 0.00 75 999.2
20260505220904 0 269 1.6 9.7 0.00 0.08 0.00 75 999.3
20260505220025 0 263 3.2 11.3 0.00 0.08 0.00 74 999.3
20260505215404 0 241 1.6 11.3 0.00 0.08 0.00 74 999.2
20260505214504 0 265 3.2 6.4 0.00 0.08 0.00 73 999.2
20260505213604 0 295 1.6 6.4 0.00 0.08 0.00 73 999.1
20260505212704 0 259 1.6 6.4 0.00 0.08 0.00 71 999.0
20260505211804 0 280 3.2 9.7 0.00 0.08 0.00 70 999.0
20260505210904 1 277 3.2 9.7 0.00 0.08 0.00 69 999.0
20260505210006 1 278 4.8 12.9 0.00 0.08 0.00 69 998.9
20260505205404 1 278 6.4 12.9 0.00 0.08 0.08 69 998.8
20260505204504 0 282 6.4 12.9 0.00 0.08 0.08 70 998.8
20260505203604 0 294 4.8 8.0 0.00 0.08 0.08 69 998.8
20260505202725 0 279 3.2 9.7 0.00 0.08 0.08 68 998.7
20260505201804 0 271 3.2 9.7 0.00 0.08 0.08 67 998.7
20260505200904 1 269 3.2 9.7 0.00 0.08 0.08 66 998.6
20260505200004 1 274 3.2 9.7 0.00 0.08 0.08 63 998.5
20260505195404 2 281 4.8 9.7 0.00 0.08 0.08 62 998.5
20260505194504 2 278 4.8 14.5 0.00 0.08 0.08 62 998.5
20260505193625 2 263 1.6 9.7 0.00 0.08 0.08 62 998.5
20260505192704 2 273 3.2 11.3 0.00 0.08 0.08 60 998.5
20260505191825 3 273 3.2 11.3 0.00 0.08 0.08 59 998.5
20260505190904 3 275 3.2 11.3 0.00 0.08 0.08 58 998.4
20260505190004 3 280 4.8 11.3 0.00 0.08 0.08 57 998.4
20260505185404 4 280 3.2 12.9 0.00 0.08 0.08 56 998.3
20260505184504 4 279 6.4 12.9 0.00 0.08 0.08 55 998.3
20260505183604 4 273 3.2 14.5 0.00 0.08 0.08 55 998.2
20260505182704 5 266 1.6 9.7 0.00 0.08 0.08 52 998.1
20260505181804 5 277 6.4 14.5 0.00 0.08 0.08 51 998.1
20260505180904 5 276 8.0 20.9 0.00 0.08 0.08 50 998.1
20260505180004 6 279 11.3 25.7 0.00 0.08 0.08 48 998.0
20260505175404 6 277 11.3 20.9 0.00 0.08 0.08 49 997.8
20260505174504 6 280 11.3 29.0 0.00 0.08 0.08 47 997.8
20260505173604 7 278 11.3 22.5 0.00 0.08 0.08 47 997.7
20260505172704 7 276 12.9 29.0 0.00 0.08 0.08 46 997.7
20260505171804 7 276 11.3 24.1 0.00 0.08 0.08 46 997.6
20260505170904 7 279 12.9 29.0 0.00 0.08 0.08 46 997.6
20260505170004 7 283 12.9 25.7 0.00 0.08 0.08 46 997.6
20260505165404 7 282 12.9 25.7 0.00 0.08 0.08 45 997.5
20260505164504 7 279 16.1 32.2 0.00 0.08 0.08 45 997.5
20260505163604 7 290 17.7 32.2 0.00 0.08 0.08 45 997.5
20260505162704 7 292 17.7 32.2 0.00 0.08 0.08 45 997.4
20260505161804 7 288 16.1 29.0 0.00 0.08 0.08 47 997.4
20260505160904 7 287 19.3 38.6 0.00 0.08 0.08 47 997.3
20260505152704 8 280 16.1 32.2 0.00 0.08 0.08 44 996.9
20260505151804 8 286 14.5 30.6 0.00 0.08 0.08 45 996.8
20260505150904 7 288 19.3 40.2 0.00 0.08 0.08 47 996.7
20260505124525 6 277 16.1 32.2 0.00 0.08 0.08 58 995.9
20260505123604 6 277 17.7 37.0 0.00 0.08 0.08 59 995.7
20260505122703 6 276 11.3 27.4 0.00 0.08 0.08 60 995.7
20260505121803 5 286 14.5 29.0 0.00 0.08 0.08 64 995.7
20260505120904 5 285 17.7 30.6 0.00 0.08 0.08 65 995.7
20260505120004 5 291 17.7 29.0 0.00 0.08 0.08 66 995.7
20260505115404 5 291 17.7 33.8 0.00 0.08 0.08 66 995.7
20260505114525 5 280 16.1 35.4 0.00 0.08 0.08 66 995.6
20260505113603 5 279 16.1 40.2 0.00 0.08 0.08 65 995.5
20260505112704 5 275 16.1 32.2 0.00 0.08 0.08 66 995.3
20260505111803 5 283 14.5 27.4 0.00 0.08 0.08 68 995.3
20260505110903 5 291 16.1 32.2 0.00 0.08 0.08 68 995.2
20260505101803 4 275 11.3 27.4 0.00 0.08 0.08 71 994.6
20260505100904 4 281 20.9 43.5 0.00 0.08 0.08 71 994.5
20260505100004 4 280 16.1 35.4 0.00 0.08 0.08 71 994.4
20260505095403 4 278 14.5 30.6 0.00 0.08 0.08 73 994.4
20260505094504 4 274 16.1 41.8 0.00 0.08 0.08 72 994.2
20260505093603 4 271 12.9 29.0 0.00 0.08 0.08 73 994.0
20260505092703 4 277 16.1 29.0 0.00 0.08 0.08 72 994.0
20260505091804 4 270 12.9 27.4 0.00 0.08 0.08 73 993.8
20260505090903 4 267 12.9 29.0 0.00 0.08 0.08 73 993.8
20260505090004 4 278 17.7 32.2 0.00 0.08 0.08 75 993.5
20260505085424 3 281 16.1 33.8 0.00 0.08 0.08 76 993.7
20260505084525 4 275 17.7 30.6 0.00 0.08 0.08 74 993.6
20260505083604 4 274 16.1 30.6 0.00 0.08 0.08 73 993.3
20260505082703 4 276 14.5 35.4 0.00 0.08 0.08 73 993.3
20260505081803 5 263 8.0 19.3 0.00 0.08 0.08 74 993.2
20260505080903 5 268 9.7 24.1 0.00 0.08 0.08 73 993.1
20260505080025 4 263 11.3 30.6 0.00 0.08 0.08 74 993.0
20260505075403 5 209 8.0 24.1 0.00 0.08 0.08 74 993.0
20260505074504 5 218 8.0 25.7 0.00 0.08 0.08 74 993.0
20260505073624 4 254 6.4 19.3 0.00 0.08 0.08 77 992.9
20260505072703 4 253 8.0 27.4 0.00 0.08 0.08 77 992.9
20260505071803 5 248 4.8 22.5 0.00 0.08 0.08 78 993.0
20260505070903 4 228 4.8 16.1 0.00 0.08 0.08 78 992.8
20260505070004 4 254 4.8 16.1 0.00 0.08 0.08 79 993.0
20260505065404 4 253 6.4 17.7 0.00 0.08 0.08 80 992.8
20260505064504 4 254 6.4 17.7 0.00 0.08 0.08 79 992.8
20260505063603 4 235 4.8 16.1 0.00 0.08 0.08 82 992.6
20260505062703 3 207 4.8 22.5 0.00 0.08 0.08 82 992.6
20260505061803 3 189 4.8 16.1 0.00 0.08 0.08 83 992.7
20260505060903 3 216 4.8 16.1 0.00 0.08 0.08 83 992.6
20260505060024 3 204 4.8 17.7 0.00 0.08 0.08 84 992.6
20260505055403 3 229 4.8 14.5 0.00 0.08 0.08 86 992.7
20260505054504 2 242 6.4 16.1 0.00 0.08 0.08 86 992.7
20260505053603 2 238 4.8 17.7 0.00 0.08 0.08 86 992.8
20260505052703 2 232 4.8 17.7 0.00 0.08 0.08 87 992.7
20260505051803 2 237 4.8 20.9 0.00 0.08 0.08 87 992.7
20260505050903 2 217 4.8 14.5 0.00 0.08 0.08 87 992.8
20260505040924 2 238 6.4 20.9 0.00 0.08 0.08 88 992.8
20260505040004 2 248 6.4 22.5 0.00 0.08 0.08 89 992.8
20260505035403 2 254 6.4 22.5 0.00 0.08 0.08 89 992.9
20260505034503 2 239 6.4 17.7 0.00 0.08 0.08 89 992.8
20260505033603 2 215 6.4 17.7 0.00 0.08 0.08 89 992.8
20260505032703 2 221 3.2 17.7 0.00 0.08 0.08 90 992.7
20260505031803 2 234 3.2 17.7 0.00 0.08 0.08 90 992.6
20260505030924 2 240 3.2 12.9 0.00 0.08 0.08 90 992.5
20260505030003 2 235 4.8 16.1 0.00 0.08 0.08 90 992.6
20260505025403 2 229 4.8 16.1 0.00 0.08 0.08 90 992.7
20260505024503 2 234 4.8 19.3 0.00 0.08 0.08 90 992.6
20260505023624 2 226 4.8 16.1 0.00 0.08 0.08 91 992.6
20260505022703 2 231 4.8 25.7 0.00 0.08 0.08 91 992.6
20260505021824 2 221 4.8 22.5 0.00 0.08 0.08 91 992.6
20260505020903 2 216 3.2 17.7 0.00 0.08 0.08 91 992.5
20260505020003 2 228 4.8 19.3 0.00 0.08 0.08 91 992.7
20260505015403 2 218 6.4 19.3 0.00 0.08 0.08 91 992.7
20260505014524 2 209 4.8 20.9 0.00 0.08 0.08 91 992.7
20260505013603 2 194 3.2 14.5 0.00 0.08 0.08 91 992.6